Location: St. Louis
(38.6270°N, 90.1994°W)
Time: 11:58:37
(UTC-06:00)

Vanguard 1 - All Passes

Search period start: 30 November 2021 00:00
Search period end: 10 December 2021 00:00
Orbit: 653 x 3830 km, 34.3° (Epoch: 29 November)

Date Brightness Start Highest point End Pass type
(mag) Time Alt. Az. Time Alt. Az. Time Alt. Az.
30 Nov - 02:11:06 10° WSW 02:34:45 75° S 02:50:58 10° E visible
30 Nov - 04:39:04 10° W 04:59:58 70° SSW 05:11:47 10° ESE visible
30 Nov - 07:07:56 10° W 07:21:34 35° SW 07:29:43 10° SSE daylight
30 Nov - 21:47:54 10° S 22:04:57 32° SE 22:23:21 10° E visible
01 Dec - 00:07:22 10° SW 00:29:44 62° SSE 00:49:24 10° E visible
01 Dec - 02:32:36 10° WSW 02:56:14 77° S 03:12:01 10° E visible
01 Dec - 05:00:49 10° W 05:21:01 64° SSW 05:32:26 10° SE visible
01 Dec - 07:30:11 10° W 07:41:50 27° SW 07:49:22 10° S daylight
01 Dec - 19:58:55 10° SE 20:03:27 11° ESE 20:08:14 10° ESE visible
01 Dec - 22:07:17 10° SSW 22:25:39 40° SE 22:45:31 10° E visible
02 Dec - 00:28:13 10° WSW 00:51:05 68° SSE 01:10:40 10° E visible
02 Dec - 02:54:12 10° W 03:17:43 77° S 03:33:01 10° ESE visible
02 Dec - 05:22:36 10° W 05:41:55 56° SSW 05:52:57 10° SE visible
02 Dec - 07:53:00 10° W 08:01:58 19° SW 08:08:22 10° SSW daylight
02 Dec - 20:12:56 10° SSE 20:23:44 17° SE 20:36:01 10° E visible
02 Dec - 22:27:09 10° SSW 22:46:29 48° SE 23:07:19 10° E visible
03 Dec - 00:49:18 10° WSW 01:12:32 73° SSE 01:31:53 10° E visible
03 Dec - 03:15:52 10° W 03:39:08 75° S 03:53:58 10° ESE visible
03 Dec - 05:44:27 10° W 06:02:38 47° SW 06:13:16 10° SE visible
03 Dec - 08:17:22 10° WSW 08:21:58 12° WSW 08:25:51 10° SW daylight
03 Dec - 20:30:33 10° S 20:44:03 24° SE 21:00:06 10° E visible
03 Dec - 22:47:23 10° SW 23:07:28 55° SSE 23:28:54 10° E visible
04 Dec - 01:10:33 10° WSW 01:34:04 77° S 01:53:05 10° E visible
04 Dec - 03:37:34 10° W 04:00:26 71° SSW 04:14:49 10° ESE visible
04 Dec - 06:06:26 10° W 06:23:09 39° SW 06:33:19 10° SSE visible
04 Dec - 20:49:19 10° S 21:04:28 32° SE 21:22:59 10° E visible
04 Dec - 23:07:54 10° SW 23:28:38 63° SSE 23:50:22 10° E visible
05 Dec - 01:31:56 10° W 01:55:39 78° S 02:14:14 10° E visible
05 Dec - 03:59:16 10° W 04:21:38 65° SSW 04:35:32 10° SE visible
05 Dec - 06:28:40 10° W 06:43:28 30° SW 06:53:01 10° S visible
05 Dec - 21:08:43 10° SSW 21:24:59 40° SE 21:45:16 10° E visible
05 Dec - 23:28:41 10° WSW 23:49:57 69° SSE 00:11:46 10° E visible
06 Dec - 01:53:26 10° W 02:17:13 78° S 02:35:21 10° ESE visible
06 Dec - 04:21:01 10° W 04:42:37 58° SSW 04:56:05 10° SE visible
06 Dec - 06:51:25 10° W 07:03:38 23° SW 07:12:09 10° S daylight
06 Dec - 19:15:15 10° SSE 19:24:00 16° SE 19:34:25 10° E visible
06 Dec - 21:28:36 10° SSW 21:45:40 47° SE 22:07:11 10° E visible
06 Dec - 23:49:40 10° WSW 00:11:24 74° SSE 00:33:08 10° E visible
07 Dec - 02:14:58 10° W 02:38:45 76° S 02:56:23 10° ESE visible
07 Dec - 04:42:49 10° W 05:03:26 50° SW 05:16:26 10° SE visible
07 Dec - 07:15:11 10° W 07:23:40 16° WSW 07:30:17 10° SSW daylight
07 Dec - 19:32:44 10° S 19:44:09 23° SE 19:58:47 10° E visible
07 Dec - 21:48:47 10° SW 22:06:33 55° SSE 22:28:54 10° E visible
08 Dec - 00:10:49 10° WSW 00:32:57 77° S 00:54:27 10° E visible
08 Dec - 02:36:33 10° W 03:00:10 72° SSW 03:17:19 10° ESE visible
08 Dec - 05:04:46 10° W 05:24:02 42° SW 05:36:30 10° SSE visible
08 Dec - 19:51:29 10° S 20:04:23 30° SE 20:21:50 10° E visible
08 Dec - 22:09:16 10° SW 22:27:36 63° SSE 22:50:30 10° E visible
09 Dec - 00:32:05 10° W 00:54:34 79° S 01:15:44 10° E visible
09 Dec - 02:58:09 10° W 03:21:27 67° SSW 03:38:05 10° SE visible
09 Dec - 05:26:58 10° W 05:44:26 34° SW 05:56:13 10° SSE visible
09 Dec - 20:10:54 10° SSW 20:24:46 38° SE 20:44:14 10° E visible
09 Dec - 22:29:58 10° WSW 22:48:50 69° SSE 23:12:02 10° E visible
